DW6536 Weather Reports


Display with metric or nautical units.
time (UTC)temp
F
wind
direction
speed
MPH
gust
MPH
rain 1hr
in
rain 24hr
in
rain mn
in
humidity
%
barometer
mb
20260906161540 86 28 1.0 0.0 0.00 0.00 0.00 71 1012.5
20260906160029 84 131 0.0 0.0 0.00 0.00 0.00 72 1012.5
20260906154539 84 107 1.0 0.0 0.00 0.00 0.00 74 1012.3
20260906153025 83 165 1.0 0.0 0.00 0.00 0.00 75 1012.0
20260906151524 83 114 1.0 0.0 0.00 0.00 0.00 75 1011.9
20260906150024 83 106 0.0 0.0 0.00 0.00 0.00 75 1011.9
20260906144523 82 215 1.0 0.0 0.00 0.00 0.00 76 1011.7
20260906143021 82 147 1.0 0.0 0.00 0.00 0.00 77 1011.9
20260906141520 81 130 1.0 0.0 0.00 0.00 0.00 77 1011.7
20260906140031 81 156 0.0 0.0 0.00 0.00 0.00 78 1011.5
20260906134518 81 129 0.0 0.0 0.00 0.00 0.00 78 1011.4
20260906133023 80 129 0.0 0.0 0.00 0.00 0.00 79 1011.4
20260906131515 80 129 0.0 0.0 0.00 0.00 0.00 80 1011.1
20260906130021 79 171 0.0 0.0 0.00 0.00 0.00 81 1011.0
20260906124512 78 171 0.0 0.0 0.00 0.00 0.00 83 1010.8
20260906123018 78 171 0.0 0.0 0.00 0.00 0.00 82 1010.5
20260906121510 78 171 0.0 0.0 0.00 0.00 0.00 81 1010.2
20260906120009 78 171 0.0 0.0 0.00 0.00 0.00 81 1010.1
20260906114510 78 171 0.0 0.0 0.00 0.00 0.00 81 1009.8
20260906113011 78 171 0.0 0.0 0.00 0.00 0.00 80 1009.5
20260906111505 79 171 0.0 0.0 0.00 0.00 0.00 80 1009.4
20260906110004 79 171 0.0 0.0 0.00 0.00 0.00 80 1009.4
20260906104502 79 171 0.0 0.0 0.00 0.00 0.00 79 1009.4
20260906103102 80 171 0.0 0.0 0.00 0.00 0.00 79 1009.3
20260906101559 80 171 0.0 0.0 0.00 0.00 0.00 78 1009.1
20260906094602 80 197 0.0 0.0 0.00 0.00 0.00 78 1009.3
20260906093056 80 257 0.0 0.0 0.00 0.00 0.00 77 1009.2
20260906091554 81 217 1.0 0.0 0.00 0.00 0.00 76 1009.1
20260906090056 81 280 0.0 0.0 0.00 0.00 0.00 76 1009.2
20260906084556 81 182 1.0 0.0 0.00 0.00 0.00 75 1009.2
20260906083050 82 130 0.0 0.0 0.00 0.00 0.00 75 1009.2
20260906081547 82 193 1.0 0.0 0.00 0.00 0.00 74 1009.2
20260906080053 82 180 1.0 0.0 0.00 0.00 0.00 74 1009.4
20260906074549 82 184 1.0 0.0 0.00 0.00 0.00 74 1009.6
20260906073042 83 189 0.0 0.0 0.00 0.00 0.00 74 1009.7
20260906071540 83 114 1.0 0.0 0.00 0.00 0.00 73 1010.0
20260906070039 83 142 1.0 0.0 0.00 0.00 0.00 73 1010.1
20260906064537 83 230 1.0 0.0 0.00 0.00 0.00 73 1010.1
20260906063044 83 143 1.0 0.0 0.00 0.00 0.00 72 1010.3
20260906061534 84 222 1.0 0.0 0.00 0.00 0.00 72 1010.3
20260906060035 84 51 1.0 0.0 0.00 0.00 0.00 71 1010.5
20260906054550 84 162 1.0 0.0 0.00 0.00 0.00 71 1010.4
20260906053031 84 188 0.0 0.0 0.00 0.00 0.00 71 1010.3
20260906051535 84 170 2.0 0.0 0.00 0.00 0.00 71 1010.3
20260906050033 84 118 1.0 0.0 0.00 0.00 0.00 71 1010.5
20260906044529 84 170 0.0 0.0 0.00 0.00 0.00 70 1010.5
20260906043027 84 133 1.0 0.0 0.00 0.00 0.00 69 1010.5
20260906041526 84 162 1.0 0.0 0.00 0.00 0.00 68 1010.3
20260906040033 85 158 1.0 0.0 0.00 0.00 0.00 67 1010.2
20260906034525 85 140 1.0 0.0 0.00 0.00 0.00 66 1010.4
20260906033024 86 149 1.0 0.0 0.00 0.00 0.00 65 1010.2
20260906031555 86 131 2.0 0.0 0.00 0.00 0.00 63 1010.0
20260906030024 87 133 2.0 0.0 0.00 0.00 0.00 62 1009.9
20260906024548 88 98 2.0 0.0 0.00 0.00 0.00 61 1009.5
20260906023024 88 114 1.0 0.0 0.00 0.00 0.00 59 1009.2
20260906021523 89 124 2.0 0.0 0.00 0.00 0.00 58 1008.7
20260906020024 89 77 2.0 0.0 0.00 0.00 0.00 57 1008.4
20260906014522 90 121 2.0 0.0 0.00 0.00 0.00 57 1008.3
20260906013021 91 156 3.0 0.0 0.00 0.00 0.00 56 1008.1
20260906011520 92 321 3.0 0.0 0.00 0.00 0.00 54 1008.1
20260906010039 93 118 2.0 0.0 0.00 0.00 0.00 51 1007.9
20260906004520 93 171 2.0 0.0 0.00 0.00 0.00 49 1007.9
20260906003019 94 68 1.0 0.0 0.00 0.00 0.00 48 1007.9
20260906001522 96 70 1.0 0.0 0.00 0.00 0.00 46 1007.8
20260906000022 96 145 1.0 0.0 0.00 0.00 0.00 43 1007.8
20260905234518 97 110 0.0 0.0 0.00 0.00 0.00 42 1007.7
20260905233017 98 156 1.0 0.0 0.00 0.00 0.00 41 1007.6
20260905231517 98 351 1.0 0.0 0.00 0.00 0.00 40 1007.6
20260905230030 99 54 1.0 0.0 0.00 0.00 0.00 39 1007.6
20260905224519 99 111 1.0 0.0 0.00 0.00 0.00 39 1007.6
20260905223017 99 167 1.0 0.0 0.00 0.00 0.00 39 1007.6
20260905221513 99 104 1.0 0.0 0.00 0.00 0.00 39 1007.8
20260905220016 97 122 1.0 0.0 0.00 0.00 0.00 41 1008.0
20260905214512 98 108 1.0 0.0 0.00 0.00 0.00 40 1007.9
20260905213011 97 56 1.0 0.0 0.00 0.00 0.00 41 1007.9
20260905211529 99 139 1.0 0.0 0.00 0.00 0.00 40 1008.2
20260905210010 101 135 2.0 0.0 0.00 0.00 0.00 39 1008.3
20260905204505 100 144 1.0 0.0 0.00 0.00 0.00 39 1008.6
20260905203003 99 120 2.0 0.0 0.00 0.00 0.00 40 1008.7
20260905201606 98 250 1.0 0.0 0.00 0.00 0.00 41 1009.0
20260905200117 98 252 2.0 0.0 0.00 0.00 0.00 40 1009.4
20260905194555 98 124 2.0 0.0 0.00 0.00 0.00 40 1009.6
20260905193053 98 153 2.0 0.0 0.00 0.00 0.00 42 1009.8
20260905191550 97 138 2.0 0.0 0.00 0.00 0.00 42 1010.2
20260905190047 97 104 2.0 0.0 0.00 0.00 0.00 41 1010.4
20260905184545 96 225 2.0 0.0 0.00 0.00 0.00 39 1010.7
20260905183045 96 45 2.0 0.0 0.00 0.00 0.00 45 1011.0
20260905181542 95 100 2.0 0.0 0.00 0.00 0.00 49 1011.1
20260905180040 95 199 2.0 0.0 0.00 0.00 0.00 46 1011.5
20260905174543 95 223 2.0 0.0 0.00 0.00 0.00 48 1011.8
20260905173054 94 54 2.0 0.0 0.00 0.00 0.00 50 1011.9
20260905171536 93 131 2.0 0.0 0.00 0.00 0.00 51 1012.1
20260905170031 92 148 1.0 0.0 0.00 0.00 0.00 55 1012.1
20260905164530 92 197 2.0 0.0 0.00 0.00 0.00 56 1012.4
20260905163027 91 322 2.0 0.0 0.00 0.00 0.00 60 1012.3